#timestamp,LO_Frequency,Hit,StdDev 
1628208015.8,286046996.5,N
1628208035.7,286046997.0,N
1628208055.5,286046996.9,N
1628208075.3,286046997.5,N
1628208095.2,286046995.9,N
1628208115.0,286046993.7,Y
1628208115.9,286046993.7,P
1628208135.7,286046999.4,N
1628208155.6,286046999.4,N
1628208175.4,286046998.9,N
1628208195.3,286046999.2,N
1628208215.1,286046998.9,N
1628208216.0,286046998.9,N
1628208235.8,286046999.2,N
1628208255.7,286046998.9,N
1628208275.5,286046998.1,N
1628208295.3,286047000.7,N
1628208315.2,286047001.2,N
1628208335.0,286046998.2,N
1628208335.9,286046998.2,N
1628208355.8,286047001.2,N
1628208375.6,286047000.8,N
1628208395.4,286047000.8,N
1628208415.3,286047011.9,Y
1628208435.1,286047000.5,P
1628208455.9,286046998.6,N
1628208475.7,286046998.9,N
1628208495.5,286047001.0,N
1628208515.4,286047000.6,N
1628208535.2,286046999.8,N
1628208555.0,286047000.0,N
1628208555.9,286047000.0,N
1628208575.8,286047000.5,N
1628208595.6,286047000.6,N
1628208615.5,286047000.7,N
1628208635.3,286047000.6,N
1628208655.1,286047001.0,N
1628208675.9,286046998.1,N
1628208695.7,286046998.1,N
1628208715.5,286046998.5,N
1628208735.4,286047000.6,N
1628208755.2,286047000.7,N
1628208775.1,286047001.1,N
1628208776.0,286047001.1,N
1628208795.8,286046998.9,N
1628208815.6,286046998.4,N
1628208835.5,286046998.5,N
1628208855.3,286047000.5,N
1628208875.2,286047000.7,N
1628208895.9,286046998.1,N
1628208915.7,286047000.0,N
1628208935.6,286047002.1,N
1628208955.4,286047001.8,N
1628208975.3,286047004.2,Y
1628208995.1,286047003.7,P
1628208996.0,286047003.7,N
1628209015.8,286047005.7,P
1628209035.7,286047005.5,N
1628209055.5,286047004.2,N
1628209075.3,286047002.2,N
1628209095.2,286046999.8,N
1628209115.0,286046999.9,N
1628209115.9,286046999.9,N
1628209135.8,286046999.8,N
1628209155.6,286047001.6,N
1628209175.4,286047001.6,N
1628209195.3,286047001.8,N
1628209215.1,286047003.7,N
1628209235.9,286047001.5,N
1628209255.7,286047002.8,N
1628209275.5,286047001.4,N
1628209295.4,286047002.7,N
1628209315.2,286047003.8,N
1628209335.0,286047003.6,N
1628209335.9,286047003.6,N
1628209355.8,286047004.1,N
1628209375.6,286047002.2,N
1628209395.5,286047001.9,N
1628209415.7,286047001.3,N
1628209435.5,286047003.2,N
1628209455.4,286047004.7,N
1628209475.2,286047003.0,N
1628209495.1,286047003.2,N
1628209526.0,286047003.4,E
1628209535.0,286047001.5,N
1628209535.9,286047001.5,P
1628209555.7,286047000.2,P
1628209575.6,286047000.0,N
1628209595.4,286047000.4,N
1628209615.3,286047002.8,Y
1628209635.1,286046999.7,P
1628209636.0,286046999.7,N
1628209655.8,286047000.3,N
1628209675.7,286046998.6,Y
1628209695.5,286047001.2,P
1628209715.4,286046998.6,N
1628209735.2,286046998.8,N
1628209755.0,286046998.1,N
1628209755.9,286046998.1,N
1628209775.8,286046998.1,N
1628209795.6,286047000.4,N
1628209815.4,286046999.7,N
1628209835.3,286047000.7,N
1628209855.1,286047000.8,N
1628209875.9,286047000.6,N
1628209895.5,286047000.9,N
1628209915.3,286047001.2,N
1628209935.1,286046998.6,N
1628209955.7,286047000.9,N
1628209975.6,286047000.6,N
1628209995.4,286047000.5,N
1628210015.2,286046998.1,N
1628210035.1,286046999.3,N
1628210036.0,286046999.3,N
1628210055.8,286046998.7,N
1628210075.7,286046998.2,N
1628210095.5,286046998.8,N
1628210115.3,286046998.3,N
1628210135.2,286047001.1,N
1628210155.0,286047002.0,N
1628210155.9,286047002.0,N
1628210175.8,286047002.0,N
1628210195.6,286047004.4,Y
1628210215.4,286047002.9,P
1628210235.3,286047003.8,N
1628210255.1,286047002.9,N
1628210275.9,286047005.3,Y
1628210295.7,286047004.4,P
1628210315.5,286047001.5,N
1628210335.4,286047002.3,N
1628210355.2,286047001.9,N
1628210375.0,286047004.4,Y
1628210375.9,286047004.4,P
1628210395.8,286047000.3,N
1628210415.6,286047002.8,N
1628210435.5,286047002.3,N
1628210455.3,286047002.5,N
1628210475.1,286047001.5,N
1628210495.9,286047001.3,N
1628210515.7,286047002.6,N
1628210535.6,286047002.1,N
1628210555.4,286047001.4,N
1628210575.2,286047004.0,Y
1628210595.1,286047000.4,P
1628210596.0,286047000.4,N
1628210615.8,286047001.0,N
1628210635.6,286047000.2,N
1628210655.5,286047000.3,N
1628210675.3,286047000.7,N
1628210695.2,286047000.6,N
1628210715.9,286047001.2,N
1628210735.7,286047000.5,N
1628210755.6,286047000.5,N
1628210775.4,286047000.3,N
1628210795.2,286047000.8,N
1628210815.1,286046998.1,Y
1628210816.0,286046998.1,P
1628210835.8,286046998.9,N
1628210855.7,286046998.3,N
1628210875.5,286047001.0,N
1628210895.3,286046998.3,N
1628210915.2,286046998.6,N
1628210935.0,286046998.7,N
1628210935.9,286046998.7,N
1628210955.8,286046998.4,N
1628210975.6,286046999.3,N
1628210995.4,286046999.2,N
1628211015.3,286046999.1,N
1628211035.1,286046999.6,N
1628211055.9,286046998.2,N
1628211075.7,286047001.0,N
1628211095.5,286047000.7,N
1628211115.4,286046998.6,N
1628211135.2,286046998.2,N
1628211155.1,286046999.4,N
1628211156.0,286046999.4,N
1628211175.8,286046996.5,Y
1628211195.6,286046999.0,P
1628211215.5,286047001.1,P
1628211235.3,286046996.5,P
1628211255.2,286046998.7,N
1628211275.9,286046999.0,N
1628211295.7,286046996.6,N
1628211315.6,286046999.2,N
1628211335.4,286046998.5,N
1628211355.2,286046998.9,N
1628211375.1,286046999.6,N
1628211376.0,286046999.6,N
1628211395.8,286046999.2,N
1628211415.7,286046999.0,N
1628211435.5,286046998.5,N
1628211455.3,286046999.6,N
1628211475.2,286046996.2,Y
1628211495.0,286046995.3,P
1628211495.9,286046995.3,N
1628211515.8,286046997.7,N
1628211535.7,286046995.0,Y
1628211555.5,286047000.4,P
1628211575.3,286046999.9,N
1628211595.2,286047000.8,N
